Regional Weather Roundup
Issued by NWS

Home | Current Version | Previous Version | Graphics & Text | Print | Product List | Glossary On
Versions: 1 2 3 4 5 6 7 8 9 10 11 12 13 14 15 16 17 18 19 20 21 22 23 24 25 26 27 28 29 30 31 32 33 34 35 36 37 38 39 40 41 42 43 44 45 46 47 48 49 50
000
ASUS44 KMEG 131610
RWRTN
TENNESSEE HOURLY STATE WEATHER ROUNDUP
NATIONAL WEATHER SERVICE MEMPHIS TN
1100 AM CDT SUN JUL 13 2014

TNZ002-004-019-021-049-052-054-088>092-131700-
WEST TENNESSEE

CITY           SKY/WX    TMP DP  RH WIND       PRES   REMARKS
MEMPHIS INTL   MOSUNNY   89  74  60 SW6       30.10S HX  98
NWS MEMPHIS      N/A     87 N/A N/A MISG        N/A
JACKSON        SUNNY     89  74  60 SW10      30.09F HX  98
DYERSBURG      SUNNY     90  70  51 SW12      30.08S HX  95
UNION CITY     SUNNY     88  75  66 SW10      30.06S HX  97
PARIS          MOSUNNY   85  74  69 SW10      30.09S HX  92
LEXINGTON      SUNNY     88  73  62 SW8       30.09F HX  96
SAVANNAH       SUNNY     87  75  67 NW3       30.11F HX  96
$$

TNZ008-025-027-028-033-062-065-066-131700-
NORTH MIDDLE TENNESSEE

CITY           SKY/WX    TMP DP  RH WIND       PRES   REMARKS
NASHVILLE      PTSUNNY   89  66  46 VRB3      30.10F HX  91
DICKSON        SUNNY     86  72  62 W9        30.11F HX  92
PORTLAND       MOSUNNY   88  70  55 VRB6      30.09F HX  92
CLARKSVILLE    MOSUNNY   87  72  60 W10       30.08S HX  93
LEBANON        SUNNY     90  68  48 W9        30.09F HX  94
SMYRNA         MOSUNNY   93  69  45 W12       30.11F HX  98
MURFREESBORO   MOSUNNY   89  71  55 VRB7      30.10F HX  95
COOKEVILLE     MOSUNNY   88  75  66 VRB5      30.13F HX  97
GALLATIN       SUNNY     90  70  51 VRB7      30.11F HX  95
CROSSVILLE     MOSUNNY   81  71  71 W9        30.18F
$$

TNZ061-075-076-078-094-096-097-131700-
SOUTH MIDDLE TENNESSEE

CITY           SKY/WX    TMP DP  RH WIND       PRES   REMARKS
LEWISBURG      MOSUNNY   89  70  53 S3        30.12F HX  94
FAYETTEVILLE   SUNNY     82  72  69 SW9       30.15F
TULLAHOMA      PTSUNNY   84  72  65 W10       30.16S
WINCHESTER     PTSUNNY   88  72  58 W6        30.15F HX  94
MCMINNVILLE    SUNNY     86  73  66 W10       30.14F HX  93
COLUMBIA       SUNNY     90  72  55 W6        30.11S HX  96
SHELBYVILLE    SUNNY     88  73  62 S7        30.14S HX  96
$$

TNZ017-018-042-046-047-131700-
NORTHEAST TENNESSEE

CITY           SKY/WX    TMP DP  RH WIND       PRES   REMARKS
TRI CITIES     PTSUNNY   83  65  54 SW12      30.17F
ELIZABETHTON   MOSUNNY   81  66  61 W6        30.18F
$$

TNZ012-013-036-069-073-074-131700-
CENTRAL EAST TENNESSEE

CITY           SKY/WX    TMP DP  RH WIND       PRES   REMARKS
KNOXVILLE      MOSUNNY   87  68  52 SW13      30.14F HX  90
OAK RIDGE      MOSUNNY   87  71  58 VRB6      30.15F HX  93
GATLINBURG     MOSUNNY   88  70  55 W8        30.14F HX  92
MORRISTOWN       N/A     86  70  58 SW10      30.17S HX  90
$$

TNZ083-085-099-131700-
SOUTHEAST TENNESSEE

CITY           SKY/WX    TMP DP  RH WIND       PRES   REMARKS
CHATTANOOGA    PTSUNNY   86  70  58 VRB3      30.14F HX  90
$$

SKY/WX REPORTED AS FAIR MEANS FEW OR NO CLOUDS BELOW
12 THOUSAND FEET.



USA.gov is the U.S. government's official web portal to all federal, state and local government web resources and services.